START_TIME,STEP,MOV.,M6,t_acc.,M7,t_acc.,M19,t_acc.,H36,t_acc.
1979-07-16 21:00:27.140 ,0,0,0.,12.0,0.,12.0,0.,12.0,0.,12.0
1979-07-16 21:00:39.140 ,0,0,0.,12.0,0.,12.0,0.,12.0,0.,12.0
1979-07-16 21:00:51.140 ,0,1,0.,12.0,0.,12.0,0.,12.0,0.,12.0
1979-07-16 21:01:03.140 ,0,1,0.,12.0,0.,12.0,0.,12.0,0.,12.0
1979-07-16 21:01:15.140 ,0,0,0.,12.0,0.,12.0,0.,12.0,0.,12.0
1979-07-16 21:01:27.140 ,0,0,0.,12.0,0.,12.0,0.,12.0,0.,12.0
1979-07-16 21:01:39.140 ,1,1,0.,12.0,0.,12.0,0.,12.0,0.,12.0
1979-07-16 21:01:51.140 ,1,1,0.,12.0,0.,12.0,0.,12.0,0.,12.0
1979-07-16 21:02:03.140 ,1,0,0.,12.0,0.,12.0,0.,12.0,0.,12.0
1979-07-16 21:02:15.140 ,1,0,0.,12.0,0.,12.0,0.,12.0,0.,12.0
1979-07-16 21:02:27.140 ,2,1,1.,12.0,0.,12.0,0.,12.0,0.,12.0
1979-07-16 21:02:39.140 ,2,1,0.,12.0,0.,12.0,0.,12.0,0.,12.0
1979-07-16 21:02:51.140 ,2,0,1.,12.0,0.,12.0,0.,12.0,0.,12.0
1979-07-16 21:03:03.140 ,2,0,1.,12.0,0.,12.0,0.,12.0,0.,12.0
1979-07-16 21:03:15.140 ,3,1,0.,12.0,0.,12.0,0.,12.0,0.,12.0
1979-07-16 21:03:27.140 ,3,1,0.,12.0,0.,12.0,0.,12.0,0.,12.0
1979-07-16 21:03:39.140 ,3,0,0.,12.0,0.,12.0,0.,12.0,0.,12.0
1979-07-16 21:03:51.140 ,3,0,0.,12.0,0.,12.0,0.,12.0,0.,12.0
1979-07-16 21:04:03.140 ,4,1,0.,12.0,0.,12.0,0.,12.0,0.,12.0
1979-07-16 21:04:15.140 ,4,1,0.,12.0,0.,12.0,0.,12.0,0.,12.0
1979-07-16 21:04:27.140 ,4,0,0.,12.0,0.,12.0,0.,12.0,0.,12.0
1979-07-16 21:04:39.140 ,4,0,0.,12.0,0.,12.0,0.,12.0,0.,12.0
1979-07-16 21:04:51.140 ,5,1,0.,12.0,0.,12.0,0.,12.0,0.,12.0
1979-07-16 21:05:03.140 ,5,1,0.,12.0,0.,12.0,0.,12.0,0.,12.0
1979-07-16 21:05:15.140 ,5,0,0.,12.0,0.,12.0,0.,12.0,0.,12.0
1979-07-16 21:05:27.140 ,5,0,0.,12.0,0.,12.0,0.,12.0,0.,12.0
1979-07-16 21:05:39.140 ,6,1,0.,12.0,0.,12.0,0.,12.0,0.,12.0
1979-07-16 21:05:51.140 ,6,1,0.,12.0,0.,12.0,0.,12.0,0.,12.0
1979-07-16 21:06:03.140 ,6,0,0.,12.0,0.,12.0,0.,12.0,0.,12.0
1979-07-16 21:06:15.140 ,6,0,0.,12.0,0.,12.0,0.,12.0,0.,12.0
1979-07-16 21:06:27.140 ,7,0,0.,12.0,0.,12.0,0.,12.0,0.,12.0
1979-07-16 21:06:39.140 ,7,0,0.,12.0,0.,12.0,0.,12.0,0.,12.0
1979-07-16 21:06:51.140 ,7,0,0.,12.0,0.,12.0,0.,12.0,0.,12.0
1979-07-16 21:07:03.140 ,7,0,0.,12.0,0.,12.0,0.,12.0,0.,12.0
1979-07-16 21:07:15.140 ,4,1,0.,12.0,0.,12.0,0.,12.0,0.,12.0
1979-07-16 21:07:27.140 ,4,1,0.,12.0,0.,12.0,0.,12.0,0.,12.0
1979-07-16 21:07:39.140 ,0,1,0.,12.0,0.,12.0,0.,12.0,0.,12.0
1979-07-16 21:07:51.140 ,0,1,0.,12.0,0.,12.0,0.,12.0,0.,12.0
1979-07-16 21:08:03.140 ,3,1,0.,12.0,0.,12.0,0.,12.0,0.,12.0
1979-07-16 21:08:15.140 ,3,1,1.,12.0,0.,12.0,0.,12.0,0.,12.0
1979-07-16 21:08:27.140 ,7,1,0.,12.0,0.,12.0,0.,12.0,0.,12.0
1979-07-16 21:08:39.140 ,7,1,0.,12.0,0.,12.0,0.,12.0,0.,12.0
1979-07-16 21:08:51.140 ,4,1,0.,12.0,0.,12.0,0.,12.0,0.,12.0
1979-07-16 21:09:03.140 ,4,1,0.,12.0,0.,12.0,0.,12.0,0.,12.0
1979-07-16 21:09:15.140 ,0,1,0.,12.0,0.,12.0,0.,12.0,0.,12.0
1979-07-16 21:09:27.140 ,0,1,0.,12.0,0.,12.0,0.,12.0,0.,12.0
1979-07-16 21:09:39.140 ,3,1,0.,12.0,0.,12.0,0.,12.0,0.,12.0
1979-07-16 21:09:51.140 ,3,1,0.,12.0,0.,12.0,0.,12.0,0.,12.0
1979-07-16 21:10:03.140 ,7,1,0.,12.0,0.,12.0,0.,12.0,0.,12.0
1979-07-16 21:10:15.140 ,7,1,0.,12.0,0.,12.0,0.,12.0,0.,12.0
1979-07-16 21:10:27.140 ,4,1,0.,12.0,0.,12.0,0.,12.0,0.,12.0
1979-07-16 21:10:39.140 ,4,1,0.,12.0,0.,12.0,0.,12.0,0.,12.0
1979-07-16 21:10:51.140 ,0,1,0.,12.0,0.,12.0,0.,12.0,0.,12.0
1979-07-16 21:11:03.140 ,0,1,0.,12.0,0.,12.0,0.,12.0,0.,12.0
1979-07-16 21:11:15.140 ,3,1,0.,12.0,0.,12.0,0.,12.0,0.,12.0
1979-07-16 21:11:27.140 ,3,1,0.,12.0,0.,12.0,0.,12.0,0.,12.0
1979-07-16 21:11:39.140 ,7,1,0.,12.0,0.,12.0,0.,12.0,0.,12.0
1979-07-16 21:11:51.140 ,7,1,0.,12.0,0.,12.0,0.,12.0,0.,12.0
1979-07-16 21:12:03.140 ,4,1,0.,12.0,0.,12.0,0.,12.0,0.,12.0
1979-07-16 21:12:15.140 ,4,1,0.,12.0,0.,12.0,0.,12.0,0.,12.0
1979-07-16 21:12:27.140 ,0,1,0.,12.0,0.,12.0,0.,12.0,0.,12.0
1979-07-16 21:12:39.140 ,0,1,0.,12.0,0.,12.0,0.,12.0,0.,12.0
1979-07-16 21:12:51.140 ,3,1,0.,12.0,0.,12.0,0.,12.0,0.,12.0
1979-07-16 21:13:03.140 ,3,1,0.,12.0,0.,12.0,0.,12.0,0.,12.0
1979-07-16 21:13:15.140 ,7,1,0.,12.0,0.,12.0,0.,12.0,0.,12.0
1979-07-16 21:13:27.140 ,7,1,0.,12.0,0.,12.0,0.,12.0,0.,12.0
1979-07-16 21:13:39.140 ,4,1,0.,12.0,0.,12.0,0.,12.0,0.,12.0
1979-07-16 21:13:51.140 ,4,1,0.,12.0,0.,12.0,0.,12.0,0.,12.0
1979-07-16 21:14:03.140 ,0,1,0.,12.0,0.,12.0,0.,12.0,1.,12.0
1979-07-16 21:14:15.140 ,0,1,0.,12.0,0.,12.0,0.,12.0,0.,12.0
1979-07-16 21:14:27.140 ,3,1,0.,12.0,0.,12.0,0.,12.0,0.,12.0
1979-07-16 21:14:39.140 ,3,1,1.,12.0,0.,12.0,0.,12.0,0.,12.0
1979-07-16 21:14:51.140 ,7,1,1.,12.0,0.,12.0,0.,12.0,0.,12.0
1979-07-16 21:15:03.140 ,7,1,0.,12.0,0.,12.0,0.,12.0,0.,12.0
1979-07-16 21:15:15.140 ,4,1,0.,12.0,0.,12.0,0.,12.0,0.,12.0
1979-07-16 21:15:27.140 ,4,1,0.,12.0,0.,12.0,0.,12.0,0.,12.0
1979-07-16 21:15:39.140 ,0,1,0.,12.0,0.,12.0,0.,12.0,0.,12.0
1979-07-16 21:15:51.140 ,0,1,0.,12.0,0.,12.0,0.,12.0,0.,12.0
1979-07-16 21:16:03.140 ,3,1,0.,12.0,0.,12.0,0.,12.0,0.,12.0
1979-07-16 21:16:15.140 ,3,1,0.,12.0,0.,12.0,0.,12.0,0.,12.0
1979-07-16 21:16:27.140 ,7,1,0.,12.0,0.,12.0,0.,12.0,0.,12.0
1979-07-16 21:16:39.140 ,7,1,0.,12.0,0.,12.0,0.,12.0,0.,12.0
1979-07-16 21:16:51.140 ,4,1,0.,12.0,0.,12.0,0.,12.0,0.,12.0
1979-07-16 21:17:03.140 ,4,1,0.,12.0,0.,12.0,0.,12.0,0.,12.0
1979-07-16 21:17:15.140 ,0,1,0.,12.0,0.,12.0,0.,12.0,1.,12.0
1979-07-16 21:17:27.140 ,0,1,0.,12.0,0.,12.0,0.,12.0,0.,12.0
1979-07-16 21:17:39.140 ,0,0,0.,12.0,0.,12.0,0.,12.0,0.,12.0
1979-07-16 21:17:51.140 ,0,0,0.,12.0,0.,12.0,0.,12.0,0.,12.0
1979-07-16 21:18:03.140 ,0,0,0.,12.0,0.,12.0,0.,12.0,0.,12.0
1979-07-16 21:18:15.140 ,0,0,0.,12.0,0.,12.0,0.,12.0,0.,12.0
1979-07-16 21:18:27.140 ,5,1,0.,12.0,0.,12.0,0.,12.0,0.,12.0
1979-07-16 21:18:39.140 ,5,1,0.,12.0,0.,12.0,0.,12.0,0.,12.0
1979-07-16 21:18:51.140 ,5,0,0.,12.0,0.,12.0,0.,12.0,0.,12.0
1979-07-16 21:19:03.140 ,5,0,0.,12.0,0.,12.0,0.,12.0,0.,12.0
1979-07-16 21:19:15.140 ,4,1,0.,12.0,0.,12.0,0.,12.0,0.,12.0
1979-07-16 21:19:27.140 ,4,1,0.,12.0,0.,12.0,0.,12.0,0.,12.0
1979-07-16 21:19:39.140 ,4,0,0.,12.0,0.,12.0,0.,12.0,0.,12.0
1979-07-16 21:19:51.140 ,4,0,0.,12.0,0.,12.0,0.,12.0,0.,12.0
1979-07-16 21:20:03.140 ,3,1,0.,12.0,0.,12.0,0.,12.0,0.,12.0
1979-07-16 21:20:15.140 ,3,1,0.,12.0,0.,12.0,0.,12.0,0.,12.0
1979-07-16 21:20:27.140 ,3,0,0.,12.0,0.,12.0,0.,12.0,0.,12.0
1979-07-16 21:20:39.140 ,3,0,1.,12.0,0.,12.0,0.,12.0,0.,12.0
1979-07-16 21:20:51.140 ,2,1,0.,12.0,0.,12.0,0.,12.0,0.,12.0
1979-07-16 21:21:03.140 ,2,1,1.,12.0,0.,12.0,0.,12.0,0.,12.0
1979-07-16 21:21:15.140 ,2,0,0.,12.0,0.,12.0,0.,12.0,0.,12.0
1979-07-16 21:21:27.140 ,2,0,1.,12.0,0.,12.0,0.,12.0,0.,12.0
1979-07-16 21:21:39.140 ,1,1,0.,12.0,0.,12.0,0.,12.0,0.,12.0
1979-07-16 21:21:51.140 ,1,1,0.,12.0,0.,12.0,0.,12.0,0.,12.0
1979-07-16 21:22:03.140 ,1,0,0.,12.0,0.,12.0,0.,12.0,0.,12.0
1979-07-16 21:22:15.140 ,1,0,0.,12.0,0.,12.0,0.,12.0,0.,12.0
1979-07-16 21:22:27.140 ,0,1,0.,12.0,0.,12.0,0.,12.0,0.,12.0
1979-07-16 21:22:39.140 ,0,1,0.,12.0,0.,12.0,0.,12.0,0.,12.0
1979-07-16 21:22:51.140 ,0,0,0.,12.0,0.,12.0,0.,12.0,0.,12.0
1979-07-16 21:23:03.140 ,0,0,0.,12.0,0.,12.0,0.,12.0,0.,12.0
1979-07-16 21:23:15.140 ,0,1,0.,12.0,0.,12.0,0.,12.0,0.,12.0
1979-07-16 21:23:27.140 ,0,1,0.,12.0,0.,12.0,0.,12.0,0.,12.0
1979-07-16 21:23:39.140 ,0,0,0.,12.0,0.,12.0,0.,12.0,0.,12.0
1979-07-16 21:23:51.140 ,0,0,0.,12.0,0.,12.0,0.,12.0,0.,12.0
1979-07-16 21:24:03.140 ,1,1,0.,12.0,0.,12.0,0.,12.0,0.,12.0
1979-07-16 21:24:15.140 ,1,1,0.,12.0,0.,12.0,0.,12.0,0.,12.0
1979-07-16 21:24:27.140 ,1,0,0.,12.0,0.,12.0,0.,12.0,0.,12.0
1979-07-16 21:24:39.140 ,1,0,0.,12.0,0.,12.0,0.,12.0,0.,12.0
1979-07-16 21:24:51.140 ,2,1,0.,12.0,0.,12.0,0.,12.0,0.,12.0
1979-07-16 21:25:03.140 ,2,1,0.,12.0,0.,12.0,0.,12.0,0.,12.0
1979-07-16 21:25:15.140 ,2,0,0.,12.0,0.,12.0,0.,12.0,0.,12.0
1979-07-16 21:25:27.140 ,2,0,0.,12.0,0.,12.0,0.,12.0,0.,12.0
1979-07-16 21:25:39.140 ,3,1,0.,12.0,0.,12.0,0.,12.0,0.,12.0
1979-07-16 21:25:51.140 ,3,1,0.,12.0,0.,12.0,0.,12.0,0.,12.0
1979-07-16 21:26:03.140 ,3,0,0.,12.0,0.,12.0,0.,12.0,0.,12.0
1979-07-16 21:26:15.140 ,3,0,0.,12.0,0.,12.0,0.,12.0,0.,12.0
1979-07-16 21:26:27.140 ,4,1,0.,12.0,0.,12.0,0.,12.0,0.,12.0
1979-07-16 21:26:39.140 ,4,1,0.,12.0,0.,12.0,0.,12.0,0.,12.0
1979-07-16 21:26:51.140 ,4,0,0.,12.0,0.,12.0,0.,12.0,0.,12.0
1979-07-16 21:27:03.140 ,4,0,0.,12.0,0.,12.0,0.,12.0,0.,12.0
1979-07-16 21:27:15.140 ,5,1,0.,12.0,0.,12.0,0.,12.0,0.,12.0
1979-07-16 21:27:27.140 ,5,1,0.,12.0,0.,12.0,0.,12.0,0.,12.0
1979-07-16 21:27:39.140 ,5,0,0.,12.0,0.,12.0,0.,12.0,0.,12.0
1979-07-16 21:27:51.140 ,5,0,0.,12.0,0.,12.0,0.,12.0,0.,12.0
1979-07-16 21:28:03.140 ,6,1,0.,12.0,0.,12.0,0.,12.0,0.,12.0
1979-07-16 21:28:15.140 ,6,1,0.,12.0,0.,12.0,0.,12.0,0.,12.0
1979-07-16 21:28:27.140 ,6,0,0.,12.0,0.,12.0,0.,12.0,0.,12.0
1979-07-16 21:28:39.140 ,6,0,0.,12.0,0.,12.0,0.,12.0,0.,12.0
1979-07-16 21:28:51.140 ,7,1,0.,12.0,0.,12.0,0.,12.0,0.,12.0
1979-07-16 21:29:03.140 ,7,1,0.,12.0,0.,12.0,0.,12.0,0.,12.0
1979-07-16 21:29:15.140 ,7,0,0.,12.0,0.,12.0,0.,12.0,0.,12.0
1979-07-16 21:29:27.140 ,7,0,0.,12.0,0.,12.0,0.,12.0,0.,12.0
1979-07-16 21:29:39.140 ,7,1,0.,12.0,0.,12.0,0.,12.0,0.,12.0
1979-07-16 21:29:51.140 ,7,1,0.,12.0,0.,12.0,0.,12.0,0.,12.0
1979-07-16 21:30:03.140 ,7,0,0.,12.0,0.,12.0,0.,12.0,0.,12.0
1979-07-16 21:30:15.140 ,7,0,0.,12.0,0.,12.0,0.,12.0,0.,12.0
1979-07-16 21:30:27.140 ,6,1,0.,12.0,0.,12.0,0.,12.0,0.,12.0
1979-07-16 21:30:39.140 ,6,1,0.,12.0,0.,12.0,0.,12.0,0.,12.0
1979-07-16 21:30:51.140 ,6,0,0.,12.0,0.,12.0,0.,12.0,0.,12.0
1979-07-16 21:31:03.140 ,6,0,0.,12.0,0.,12.0,0.,12.0,0.,12.0
1979-07-16 21:31:15.140 ,5,1,0.,12.0,0.,12.0,0.,12.0,0.,12.0
1979-07-16 21:31:27.140 ,5,1,0.,12.0,0.,12.0,0.,12.0,0.,12.0
1979-07-16 21:31:39.140 ,5,0,0.,12.0,0.,12.0,0.,12.0,0.,12.0
1979-07-16 21:31:51.140 ,5,0,0.,12.0,0.,12.0,0.,12.0,0.,12.0
1979-07-16 21:32:03.140 ,4,1,0.,12.0,0.,12.0,0.,12.0,0.,12.0
1979-07-16 21:32:15.140 ,4,1,0.,12.0,0.,12.0,0.,12.0,0.,12.0
1979-07-16 21:32:27.140 ,4,0,0.,12.0,0.,12.0,0.,12.0,0.,12.0
1979-07-16 21:32:39.140 ,4,0,1.,12.0,0.,12.0,0.,12.0,0.,12.0
1979-07-16 21:32:51.140 ,3,1,0.,12.0,0.,12.0,0.,12.0,0.,12.0
1979-07-16 21:33:03.140 ,3,1,0.,12.0,0.,12.0,0.,12.0,0.,12.0
1979-07-16 21:33:15.140 ,3,0,0.,12.0,0.,12.0,0.,12.0,0.,12.0
1979-07-16 21:33:27.140 ,3,0,0.,12.0,0.,12.0,0.,12.0,0.,12.0
1979-07-16 21:33:39.140 ,2,1,0.,12.0,0.,12.0,0.,12.0,0.,12.0
1979-07-16 21:33:51.140 ,2,1,0.,12.0,0.,12.0,0.,12.0,0.,12.0
1979-07-16 21:34:03.140 ,2,0,0.,12.0,0.,12.0,0.,12.0,0.,12.0
1979-07-16 21:34:15.140 ,2,0,0.,12.0,0.,12.0,0.,12.0,0.,12.0
1979-07-16 21:34:27.140 ,1,1,0.,12.0,0.,12.0,0.,12.0,0.,12.0
1979-07-16 21:34:39.140 ,1,1,0.,12.0,0.,12.0,0.,12.0,0.,12.0
1979-07-16 21:34:51.140 ,1,0,0.,12.0,0.,12.0,0.,12.0,0.,12.0
1979-07-16 21:35:03.140 ,1,0,0.,12.0,0.,12.0,0.,12.0,0.,12.0
1979-07-16 21:35:15.140 ,0,1,0.,12.0,0.,12.0,0.,12.0,0.,12.0
1979-07-16 21:35:27.140 ,0,1,0.,12.0,0.,12.0,0.,12.0,0.,12.0
1979-07-16 21:35:39.140 ,0,0,0.,12.0,0.,12.0,0.,12.0,0.,12.0
1979-07-16 21:35:51.140 ,0,0,0.,12.0,0.,12.0,0.,12.0,0.,12.0
1979-07-16 21:36:03.140 ,0,1,0.,12.0,0.,12.0,0.,12.0,0.,12.0
1979-07-16 21:36:15.140 ,0,1,0.,12.0,0.,12.0,0.,12.0,0.,12.0
1979-07-16 21:36:27.140 ,0,0,0.,12.0,0.,12.0,0.,12.0,0.,12.0
1979-07-16 21:36:39.140 ,0,0,0.,12.0,0.,12.0,0.,12.0,0.,12.0
1979-07-16 21:36:51.140 ,1,1,1.,12.0,0.,12.0,0.,12.0,0.,12.0
1979-07-16 21:37:03.140 ,1,1,0.,12.0,0.,12.0,0.,12.0,0.,12.0
1979-07-16 21:37:15.140 ,1,0,0.,12.0,0.,12.0,0.,12.0,0.,12.0
1979-07-16 21:37:27.140 ,1,0,0.,12.0,0.,12.0,0.,12.0,0.,12.0
1979-07-16 21:37:39.140 ,2,1,0.,12.0,0.,12.0,0.,12.0,0.,12.0
1979-07-16 21:37:51.140 ,2,1,0.,12.0,0.,12.0,0.,12.0,0.,12.0
1979-07-16 21:38:03.140 ,2,0,0.,12.0,0.,12.0,0.,12.0,0.,12.0
1979-07-16 21:38:15.140 ,2,0,0.,12.0,0.,12.0,0.,12.0,0.,12.0
1979-07-16 21:38:27.140 ,3,1,1.,12.0,0.,12.0,0.,12.0,0.,12.0
1979-07-16 21:38:39.140 ,3,1,1.,12.0,0.,12.0,0.,12.0,1.,12.0
1979-07-16 21:38:51.140 ,3,0,0.,12.0,0.,12.0,0.,12.0,0.,12.0
1979-07-16 21:39:03.140 ,3,0,0.,12.0,0.,12.0,0.,12.0,0.,12.0
1979-07-16 21:39:15.140 ,4,1,0.,12.0,0.,12.0,0.,12.0,1.,12.0
1979-07-16 21:39:27.140 ,4,1,0.,12.0,0.,12.0,0.,12.0,0.,12.0
1979-07-16 21:39:39.140 ,4,0,0.,12.0,0.,12.0,0.,12.0,0.,12.0
1979-07-16 21:39:51.140 ,4,0,0.,12.0,0.,12.0,0.,12.0,0.,12.0
1979-07-16 21:40:03.140 ,5,1,0.,12.0,0.,12.0,0.,12.0,0.,12.0
1979-07-16 21:40:15.140 ,5,1,0.,12.0,0.,12.0,0.,12.0,0.,12.0
1979-07-16 21:40:27.140 ,5,0,0.,12.0,0.,12.0,0.,12.0,0.,12.0
1979-07-16 21:40:39.140 ,5,0,0.,12.0,0.,12.0,0.,12.0,0.,12.0
1979-07-16 21:40:51.140 ,6,1,0.,12.0,0.,12.0,0.,12.0,0.,12.0
1979-07-16 21:41:03.140 ,6,1,0.,12.0,0.,12.0,0.,12.0,0.,12.0
1979-07-16 21:41:15.140 ,6,0,0.,12.0,0.,12.0,0.,12.0,0.,12.0
1979-07-16 21:41:27.140 ,6,0,0.,12.0,0.,12.0,0.,12.0,0.,12.0
1979-07-16 21:41:39.140 ,7,1,0.,12.0,0.,12.0,0.,12.0,0.,12.0
1979-07-16 21:41:51.140 ,7,1,0.,12.0,0.,12.0,0.,12.0,0.,12.0
1979-07-16 21:42:03.140 ,7,0,0.,12.0,0.,12.0,0.,12.0,0.,12.0
1979-07-16 21:42:15.140 ,7,0,0.,12.0,0.,12.0,0.,12.0,0.,12.0
1979-07-16 21:42:27.140 ,7,1,0.,12.0,0.,12.0,0.,12.0,0.,12.0
1979-07-16 21:42:39.140 ,7,1,0.,12.0,0.,12.0,0.,12.0,0.,12.0
1979-07-16 21:42:51.140 ,7,0,0.,12.0,0.,12.0,0.,12.0,0.,12.0
1979-07-16 21:43:03.140 ,7,0,0.,12.0,0.,12.0,0.,12.0,0.,12.0
1979-07-16 21:43:15.140 ,6,1,0.,12.0,0.,12.0,0.,12.0,0.,12.0
1979-07-16 21:43:27.140 ,6,1,0.,12.0,0.,12.0,0.,12.0,0.,12.0
1979-07-16 21:43:39.140 ,6,0,0.,12.0,0.,12.0,0.,12.0,0.,12.0
1979-07-16 21:43:51.140 ,6,0,0.,12.0,0.,12.0,0.,12.0,0.,12.0
1979-07-16 21:44:03.140 ,5,1,0.,12.0,0.,12.0,0.,12.0,0.,12.0
1979-07-16 21:44:15.140 ,5,1,0.,12.0,0.,12.0,0.,12.0,0.,12.0
1979-07-16 21:44:27.140 ,5,0,0.,12.0,0.,12.0,0.,12.0,1.,12.0
1979-07-16 21:44:39.140 ,5,0,0.,12.0,0.,12.0,0.,12.0,0.,12.0
1979-07-16 21:44:51.140 ,4,1,0.,12.0,0.,12.0,0.,12.0,0.,12.0
1979-07-16 21:45:03.140 ,4,1,0.,12.0,0.,12.0,0.,12.0,0.,12.0
1979-07-16 21:45:15.140 ,4,0,0.,12.0,0.,12.0,0.,12.0,0.,12.0
1979-07-16 21:45:27.140 ,4,0,0.,12.0,0.,12.0,0.,12.0,0.,12.0
1979-07-16 21:45:39.140 ,3,1,0.,12.0,0.,12.0,0.,12.0,0.,12.0
1979-07-16 21:45:51.140 ,3,1,0.,12.0,0.,12.0,0.,12.0,0.,12.0
1979-07-16 21:46:03.140 ,3,0,0.,12.0,0.,12.0,0.,12.0,0.,12.0
1979-07-16 21:46:15.140 ,3,0,0.,12.0,0.,12.0,0.,12.0,1.,12.0
1979-07-16 21:46:27.140 ,2,1,0.,12.0,0.,12.0,0.,12.0,0.,12.0
1979-07-16 21:46:39.140 ,2,1,0.,12.0,0.,12.0,0.,12.0,0.,12.0
1979-07-16 21:46:51.140 ,2,0,0.,12.0,0.,12.0,0.,12.0,0.,12.0
1979-07-16 21:47:03.140 ,2,0,0.,12.0,0.,12.0,0.,12.0,0.,12.0
1979-07-16 21:47:15.140 ,1,1,1.,12.0,0.,12.0,0.,12.0,0.,12.0
1979-07-16 21:47:27.140 ,1,1,1.,12.0,0.,12.0,0.,12.0,0.,12.0
1979-07-16 21:47:39.140 ,1,0,0.,12.0,0.,12.0,0.,12.0,0.,12.0
1979-07-16 21:47:51.140 ,1,0,0.,12.0,0.,12.0,0.,12.0,0.,12.0
1979-07-16 21:48:03.140 ,0,1,0.,12.0,0.,12.0,0.,12.0,0.,12.0
1979-07-16 21:48:15.140 ,0,1,0.,12.0,0.,12.0,0.,12.0,0.,12.0
1979-07-16 21:48:27.140 ,0,0,1.,12.0,0.,12.0,0.,12.0,0.,12.0
1979-07-16 21:48:39.140 ,0,0,0.,12.0,0.,12.0,0.,12.0,0.,12.0
1979-07-16 21:48:51.140 ,0,1,0.,12.0,0.,12.0,0.,12.0,0.,12.0
1979-07-16 21:49:03.140 ,0,1,1.,12.0,0.,12.0,0.,12.0,0.,12.0
1979-07-16 21:49:15.140 ,0,0,0.,12.0,0.,12.0,0.,12.0,0.,12.0
1979-07-16 21:49:27.140 ,0,0,0.,12.0,0.,12.0,0.,12.0,0.,12.0
1979-07-16 21:49:39.140 ,1,1,0.,12.0,0.,12.0,0.,12.0,0.,12.0
1979-07-16 21:49:51.140 ,1,1,0.,12.0,0.,12.0,0.,12.0,0.,12.0
1979-07-16 21:50:03.140 ,1,0,0.,12.0,0.,12.0,0.,12.0,0.,12.0
1979-07-16 21:50:15.140 ,1,0,0.,12.0,0.,12.0,0.,12.0,0.,12.0
1979-07-16 21:50:27.140 ,2,1,0.,12.0,0.,12.0,0.,12.0,0.,12.0
1979-07-16 21:50:39.140 ,2,1,0.,12.0,0.,12.0,0.,12.0,0.,12.0
1979-07-16 21:50:51.140 ,2,0,0.,12.0,0.,12.0,0.,12.0,1.,12.0
1979-07-16 21:51:03.140 ,2,0,1.,12.0,0.,12.0,0.,12.0,0.,12.0
1979-07-16 21:51:15.140 ,3,1,0.,12.0,0.,12.0,0.,12.0,0.,12.0
1979-07-16 21:51:27.140 ,3,1,0.,12.0,0.,12.0,0.,12.0,0.,12.0
1979-07-16 21:51:39.140 ,3,0,0.,12.0,0.,12.0,0.,12.0,0.,12.0
1979-07-16 21:51:51.140 ,3,0,0.,12.0,0.,12.0,0.,12.0,0.,12.0
1979-07-16 21:52:03.140 ,4,1,0.,12.0,0.,12.0,0.,12.0,0.,12.0
1979-07-16 21:52:15.140 ,4,1,0.,12.0,0.,12.0,0.,12.0,0.,12.0
1979-07-16 21:52:27.140 ,4,0,0.,12.0,0.,12.0,0.,12.0,0.,12.0
1979-07-16 21:52:39.140 ,4,0,0.,12.0,0.,12.0,0.,12.0,0.,12.0
1979-07-16 21:52:51.140 ,5,1,0.,12.0,0.,12.0,0.,12.0,0.,12.0
1979-07-16 21:53:03.140 ,5,1,0.,12.0,0.,12.0,0.,12.0,0.,12.0
1979-07-16 21:53:15.140 ,5,0,0.,12.0,0.,12.0,0.,12.0,0.,12.0
1979-07-16 21:53:27.140 ,5,0,0.,12.0,0.,12.0,0.,12.0,0.,12.0
1979-07-16 21:53:39.140 ,6,1,0.,12.0,0.,12.0,0.,12.0,0.,12.0
1979-07-16 21:53:51.140 ,6,1,0.,12.0,0.,12.0,0.,12.0,0.,12.0
1979-07-16 21:54:03.140 ,6,0,0.,12.0,0.,12.0,0.,12.0,0.,12.0
1979-07-16 21:54:15.140 ,6,0,0.,12.0,0.,12.0,0.,12.0,0.,12.0
1979-07-16 21:54:27.140 ,7,0,0.,12.0,0.,12.0,0.,12.0,0.,12.0
1979-07-16 21:54:39.140 ,7,0,0.,12.0,0.,12.0,0.,12.0,0.,12.0
1979-07-16 21:54:51.140 ,7,0,0.,12.0,0.,12.0,0.,12.0,0.,12.0
1979-07-16 21:55:03.140 ,7,0,0.,12.0,0.,12.0,0.,12.0,0.,12.0
1979-07-16 21:55:15.140 ,4,1,0.,12.0,0.,12.0,0.,12.0,0.,12.0
1979-07-16 21:55:27.140 ,4,1,0.,12.0,0.,12.0,0.,12.0,0.,12.0
1979-07-16 21:55:39.140 ,0,1,0.,12.0,0.,12.0,0.,12.0,0.,12.0
1979-07-16 21:55:51.140 ,0,1,0.,12.0,0.,12.0,0.,12.0,0.,12.0
1979-07-16 21:56:03.140 ,3,1,0.,12.0,0.,12.0,0.,12.0,0.,12.0
1979-07-16 21:56:15.140 ,3,1,0.,12.0,0.,12.0,0.,12.0,0.,12.0
1979-07-16 21:56:27.140 ,7,1,0.,12.0,0.,12.0,0.,12.0,0.,12.0
1979-07-16 21:56:39.140 ,7,1,0.,12.0,0.,12.0,0.,12.0,0.,12.0
1979-07-16 21:56:51.140 ,4,1,0.,12.0,0.,12.0,0.,12.0,0.,12.0
1979-07-16 21:57:03.140 ,4,1,0.,12.0,0.,12.0,0.,12.0,0.,12.0
1979-07-16 21:57:15.140 ,0,1,0.,12.0,0.,12.0,0.,12.0,0.,12.0
1979-07-16 21:57:27.140 ,0,1,0.,12.0,0.,12.0,0.,12.0,0.,12.0
1979-07-16 21:57:39.140 ,3,1,0.,12.0,0.,12.0,0.,12.0,0.,12.0
1979-07-16 21:57:51.140 ,3,1,0.,12.0,0.,12.0,0.,12.0,0.,12.0
1979-07-16 21:58:03.140 ,7,1,0.,12.0,0.,12.0,0.,12.0,0.,12.0
1979-07-16 21:58:15.140 ,7,1,0.,12.0,0.,12.0,0.,12.0,0.,12.0
1979-07-16 21:58:27.140 ,4,1,0.,12.0,0.,12.0,0.,12.0,0.,12.0
1979-07-16 21:58:39.140 ,4,1,0.,12.0,0.,12.0,0.,12.0,0.,12.0
1979-07-16 21:58:51.140 ,0,1,0.,12.0,0.,12.0,0.,12.0,0.,12.0
1979-07-16 21:59:03.140 ,0,1,0.,12.0,0.,12.0,0.,12.0,0.,12.0
1979-07-16 21:59:15.140 ,3,1,0.,12.0,0.,12.0,0.,12.0,0.,12.0
1979-07-16 21:59:27.140 ,3,1,0.,12.0,0.,12.0,0.,12.0,0.,12.0
1979-07-16 21:59:39.140 ,7,1,1.,12.0,0.,12.0,0.,12.0,0.,12.0
1979-07-16 21:59:51.140 ,7,1,0.,12.0,0.,12.0,0.,12.0,0.,12.0
1979-07-16 22:00:03.140 ,4,1,0.,12.0,0.,12.0,0.,12.0,0.,12.0
1979-07-16 22:00:15.140 ,4,1,0.,12.0,0.,12.0,0.,12.0,0.,12.0
1979-07-16 22:00:27.140 ,0,1,0.,12.0,0.,12.0,0.,12.0,0.,12.0
1979-07-16 22:00:39.140 ,0,1,0.,12.0,0.,12.0,0.,12.0,0.,12.0
1979-07-16 22:00:51.140 ,3,1,0.,12.0,0.,12.0,0.,12.0,0.,12.0
1979-07-16 22:01:03.140 ,3,1,0.,12.0,0.,12.0,0.,12.0,0.,12.0
1979-07-16 22:01:15.140 ,7,1,0.,12.0,0.,12.0,0.,12.0,0.,12.0
1979-07-16 22:01:27.140 ,7,1,0.,12.0,0.,12.0,0.,12.0,0.,12.0
1979-07-16 22:01:39.140 ,4,1,0.,12.0,0.,12.0,0.,12.0,0.,12.0
1979-07-16 22:01:51.140 ,4,1,0.,12.0,0.,12.0,0.,12.0,0.,12.0
1979-07-16 22:02:03.140 ,0,1,0.,12.0,0.,12.0,0.,12.0,0.,12.0
1979-07-16 22:02:15.140 ,0,1,0.,12.0,0.,12.0,0.,12.0,0.,12.0
1979-07-16 22:02:27.140 ,3,1,0.,12.0,0.,12.0,0.,12.0,0.,12.0
1979-07-16 22:02:39.140 ,3,1,0.,12.0,0.,12.0,0.,12.0,0.,12.0
1979-07-16 22:02:51.140 ,7,1,0.,12.0,0.,12.0,0.,12.0,0.,12.0
1979-07-16 22:03:03.140 ,7,1,0.,12.0,0.,12.0,0.,12.0,0.,12.0
1979-07-16 22:03:15.140 ,4,1,0.,12.0,0.,12.0,0.,12.0,0.,12.0
1979-07-16 22:03:27.140 ,4,1,0.,12.0,0.,12.0,0.,12.0,0.,12.0
1979-07-16 22:03:39.140 ,0,1,0.,12.0,0.,12.0,0.,12.0,0.,12.0
1979-07-16 22:03:51.140 ,0,1,0.,12.0,0.,12.0,0.,12.0,0.,12.0
1979-07-16 22:04:03.140 ,3,1,0.,12.0,0.,12.0,0.,12.0,0.,12.0
1979-07-16 22:04:15.140 ,3,1,0.,12.0,0.,12.0,0.,12.0,0.,12.0
1979-07-16 22:04:27.140 ,7,1,0.,12.0,0.,12.0,0.,12.0,0.,12.0
1979-07-16 22:04:39.140 ,7,1,0.,12.0,0.,12.0,0.,12.0,0.,12.0
1979-07-16 22:04:51.140 ,4,1,0.,12.0,0.,12.0,0.,12.0,0.,12.0
1979-07-16 22:05:03.140 ,4,1,0.,12.0,0.,12.0,0.,12.0,0.,12.0
1979-07-16 22:05:15.140 ,0,1,0.,12.0,0.,12.0,0.,12.0,0.,12.0
1979-07-16 22:05:27.140 ,0,1,0.,12.0,0.,12.0,0.,12.0,0.,12.0
1979-07-16 22:05:39.140 ,0,0,0.,12.0,0.,12.0,0.,12.0,0.,12.0
1979-07-16 22:05:51.140 ,0,0,0.,12.0,0.,12.0,0.,12.0,0.,12.0
1979-07-16 22:06:03.140 ,0,0,0.,12.0,0.,12.0,0.,12.0,0.,12.0
1979-07-16 22:06:15.140 ,0,0,0.,12.0,0.,12.0,0.,12.0,0.,12.0
1979-07-16 22:06:27.140 ,5,1,0.,12.0,0.,12.0,0.,12.0,0.,12.0
1979-07-16 22:06:39.140 ,5,1,0.,12.0,0.,12.0,0.,12.0,0.,12.0
1979-07-16 22:06:51.140 ,5,0,0.,12.0,0.,12.0,0.,12.0,0.,12.0
1979-07-16 22:07:03.140 ,5,0,0.,12.0,0.,12.0,0.,12.0,0.,12.0
1979-07-16 22:07:15.140 ,4,1,0.,12.0,0.,12.0,0.,12.0,0.,12.0
1979-07-16 22:07:27.140 ,4,1,0.,12.0,0.,12.0,0.,12.0,0.,12.0
1979-07-16 22:07:39.140 ,4,0,0.,12.0,0.,12.0,0.,12.0,0.,12.0
1979-07-16 22:07:51.140 ,4,0,0.,12.0,0.,12.0,0.,12.0,0.,12.0
1979-07-16 22:08:03.140 ,3,1,0.,12.0,0.,12.0,0.,12.0,0.,12.0
1979-07-16 22:08:15.140 ,3,1,0.,12.0,0.,12.0,0.,12.0,0.,12.0
1979-07-16 22:08:27.140 ,3,0,0.,12.0,0.,12.0,0.,12.0,0.,12.0
1979-07-16 22:08:39.140 ,3,0,0.,12.0,0.,12.0,0.,12.0,0.,12.0
1979-07-16 22:08:51.140 ,2,1,0.,12.0,0.,12.0,0.,12.0,0.,12.0
1979-07-16 22:09:03.140 ,2,1,0.,12.0,0.,12.0,0.,12.0,0.,12.0
1979-07-16 22:09:15.140 ,2,0,0.,12.0,0.,12.0,0.,12.0,0.,12.0
1979-07-16 22:09:27.140 ,2,0,0.,12.0,0.,12.0,0.,12.0,0.,12.0
1979-07-16 22:09:39.140 ,1,1,0.,12.0,0.,12.0,0.,12.0,0.,12.0
1979-07-16 22:09:51.140 ,1,1,0.,12.0,0.,12.0,0.,12.0,0.,12.0
1979-07-16 22:10:03.140 ,1,0,0.,12.0,0.,12.0,0.,12.0,0.,12.0
1979-07-16 22:10:15.140 ,1,0,0.,12.0,0.,12.0,0.,12.0,0.,12.0
1979-07-16 22:10:27.140 ,0,1,0.,12.0,0.,12.0,0.,12.0,1.,12.0
1979-07-16 22:10:39.140 ,0,1,0.,12.0,0.,12.0,0.,12.0,0.,12.0
1979-07-16 22:10:51.140 ,0,0,0.,12.0,0.,12.0,0.,12.0,0.,12.0
1979-07-16 22:11:03.140 ,0,0,0.,12.0,0.,12.0,0.,12.0,0.,12.0
1979-07-16 22:11:15.140 ,0,1,0.,12.0,0.,12.0,0.,12.0,0.,12.0
1979-07-16 22:11:27.140 ,0,1,0.,12.0,0.,12.0,0.,12.0,1.,12.0
1979-07-16 22:11:39.140 ,0,0,0.,12.0,0.,12.0,0.,12.0,0.,12.0
1979-07-16 22:11:51.140 ,0,0,0.,12.0,0.,12.0,0.,12.0,0.,12.0
1979-07-16 22:12:03.140 ,1,1,0.,12.0,0.,12.0,0.,12.0,0.,12.0
1979-07-16 22:12:15.140 ,1,1,0.,12.0,0.,12.0,0.,12.0,0.,12.0
1979-07-16 22:12:27.140 ,1,0,0.,12.0,0.,12.0,0.,12.0,0.,12.0
1979-07-16 22:12:39.140 ,1,0,0.,12.0,0.,12.0,0.,12.0,0.,12.0
1979-07-16 22:12:51.140 ,2,1,0.,12.0,0.,12.0,0.,12.0,0.,12.0
1979-07-16 22:13:03.140 ,2,1,1.,12.0,0.,12.0,0.,12.0,0.,12.0
1979-07-16 22:13:15.140 ,2,0,0.,12.0,0.,12.0,0.,12.0,0.,12.0
1979-07-16 22:13:27.140 ,2,0,0.,12.0,0.,12.0,0.,12.0,0.,12.0
1979-07-16 22:14:27.140 ,0,0,0.,12.0,0.,12.0,0.,12.0,0.,12.0
1979-07-16 22:14:39.140 ,0,0,0.,12.0,0.,12.0,0.,12.0,0.,12.0
1979-07-16 22:14:51.140 ,0,0,0.,12.0,0.,12.0,0.,12.0,0.,12.0
1979-07-16 22:15:03.140 ,0,0,0.,12.0,0.,12.0,0.,12.0,0.,12.0
1979-07-16 22:15:15.140 ,5,1,0.,12.0,0.,12.0,0.,12.0,0.,12.0
1979-07-16 22:15:27.140 ,5,1,0.,12.0,0.,12.0,0.,12.0,0.,12.0
1979-07-16 22:15:39.140 ,5,0,0.,12.0,0.,12.0,0.,12.0,0.,12.0
1979-07-16 22:15:51.140 ,5,0,0.,12.0,0.,12.0,0.,12.0,1.,12.0
1979-07-16 22:16:03.140 ,6,1,0.,12.0,0.,12.0,0.,12.0,0.,12.0
1979-07-16 22:16:15.140 ,6,1,0.,12.0,0.,12.0,0.,12.0,0.,12.0
1979-07-16 22:16:27.140 ,6,0,0.,12.0,0.,12.0,0.,12.0,0.,12.0
1979-07-16 22:16:39.140 ,6,0,0.,12.0,0.,12.0,0.,12.0,0.,12.0
1979-07-16 22:16:51.140 ,7,1,0.,12.0,0.,12.0,0.,12.0,0.,12.0
1979-07-16 22:17:03.140 ,7,1,0.,12.0,0.,12.0,0.,12.0,0.,12.0
1979-07-16 22:17:15.140 ,7,0,0.,12.0,0.,12.0,0.,12.0,0.,12.0
1979-07-16 22:17:27.140 ,7,0,0.,12.0,0.,12.0,0.,12.0,0.,12.0
1979-07-16 22:17:39.140 ,7,1,0.,12.0,0.,12.0,0.,12.0,0.,12.0
1979-07-16 22:17:51.140 ,7,1,0.,12.0,0.,12.0,0.,12.0,0.,12.0
1979-07-16 22:18:03.140 ,7,0,0.,12.0,0.,12.0,0.,12.0,0.,12.0
1979-07-16 22:18:15.140 ,7,0,0.,12.0,0.,12.0,0.,12.0,0.,12.0